Lid_Strength_Index
1 3 4 6 8 10 12 11 10 10 9 7 8 9 8 7 9 10 5 0 -0 -0 -1 -1 -1 -2 -2 -2 -2 -2 -2 -2 -2 -2 -2 -2 -2 -2 -2 -2 -2 -2 -2 -2 -2 -2 -2 -2 -2
3 4 5 9 11 13 13 11 11 10 7 7 7 6 6 8 4 4 3 1 -1 -1 -1 -1 -1 -1 -1 -2 -2 -2 -2 -2 -2 -2 -2 -2 -2 -2 -2 -2 -2 -2 -2 -2 -2 -2 -2 -2 -2
3 5 6 10 13 13 13 11 10 8 7 9 7 5 6 7 4 4 2 0 -1 -1 -1 -1 -1 -1 -1 -2 -2 -2 -2 -2 -2 -2 -2 -2 -2 -2 -2 -2 -1 -1 -2 -2 -2 -2 -2 -2 -2
5 6 9 11 12 11 10 10 10 8 8 8 6 7 4 3 3 2 0 -0 -0 -1 -1 -1 -1 -2 -1 -1 -1 -2 -2 -2 -2 -2 -2 -2 -2 -2 -2 -2 -2 -2 -2 -2 -2 -2 -2 -2 -2
8 9 12 12 12 11 11 10 9 9 9 8 7 8 6 3 2 1 1 -0 0 -0 -1 -1 -1 -2 -2 -2 -2 -2 -2 -2 -2 -2 -2 -2 -2 -2 -2 -2 -2 -2 -2 -3 -2 -2 -2 -2 -1
8 10 12 13 13 11 10 10 9 9 9 8 7 7 6 5 2 1 0 0 -0 -0 -1 -1 0 -0 -1 -1 -1 -2 -2 -2 -2 -2 -2 -2 -2 -2 -2 -2 -2 -1 -2 -2 -2 -2 -1 -0 0
9 11 12 13 13 11 10 10 10 10 9 9 6 7 6 5 3 3 3 2 -0 -1 -1 -1 -1 -0 1 -0 -1 -1 -1 -1 -2 -2 -2 -2 -2 -2 -2 -2 -2 -2 -1 -1 -1 -0 0 1 1
11 11 13 13 13 12 10 10 10 9 9 8 6 8 7 4 4 6 5 4 2 0 -0 -1 -1 -1 -1 -1 1 0 -0 -1 -1 -1 -1 -1 -1 -2 -2 -1 -2 -2 -1 -1 -0 0 1 1 2
10 13 14 13 13 11 11 10 10 9 9 9 8 8 7 4 6 6 6 6 5 4 2 0 -0 -1 -1 -1 0 1 1 0 0 -0 0 -0 -1 -1 -1 -1 -1 -1 -0 0 1 1 1 2 3
12 13 13 12 12 11 10 10 10 10 10 9 9 8 6 5 7 6 6 5 5 5 5 4 1 1 0 -1 -1 -1 -1 -1 -1 -1 -1 -1 -1 -1 -1 1 0 0 1 1 1 2 3 5 5
12 13 12 11 11 10 10 11 10 10 11 10 9 9 7 5 6 5 5 5 5 6 6 5 6 6 3 1 -1 -1 -1 -1 -1 -1 -1 -1 -1 -1 0 0 1 2 3 3 3 3 4 5 5
12 12 12 10 9 10 11 10 11 11 9 9 9 8 7 5 6 5 5 6 7 7 7 6 6 6 6 5 1 -1 -1 -1 -1 -0 -0 -0 0 1 1 2 2 2 2 3 3 3 4 5 6
12 11 11 10 10 11 10 11 11 11 10 9 10 9 8 5 5 6 6 6 8 8 8 7 6 5 5 5 3 1 -0 -1 -1 0 -0 0 1 1 1 2 2 3 3 4 3 4 5 6 7
11 10 11 10 10 10 11 12 11 10 10 10 10 10 9 7 5 7 8 8 9 9 8 8 7 6 5 5 2 1 1 1 1 1 0 1 1 2 2 3 3 4 4 4 4 5 6 7 8
11 12 11 11 11 11 11 11 11 10 10 10 10 10 10 9 9 6 6 8 9 8 8 8 7 5 6 5 1 1 2 2 3 2 2 1 2 2 3 3 3 3 4 5 6 6 7 9 10
12 13 14 12 11 11 11 13 11 11 11 10 11 11 11 10 10 9 8 8 8 7 7 6 4 3 3 3 2 2 3 3 4 4 2 2 3 3 4 4 4 5 5 6 6 7 8 9 11
14 16 15 13 11 12 12 13 11 11 12 11 11 11 11 11 11 10 9 8 8 8 7 6 4 3 3 3 3 2 4 4 4 4 4 4 3 4 4 5 5 7 8 7 8 8 9 11 13
16 16 16 15 13 13 13 13 12 12 12 11 11 11 11 11 10 9 10 10 9 8 7 6 5 4 4 5 5 6 6 7 5 6 6 5 5 5 5 7 8 9 10 9 8 9 10 12 13
15 16 16 14 13 13 13 14 12 11 13 12 11 11 11 11 9 10 10 10 10 9 8 7 6 5 5 5 6 6 7 8 8 7 8 9 7 7 7 8 10 10 8 9 9 9 12 13 13
15 16 15 14 13 13 14 14 12 12 12 11 10 10 10 10 11 11 11 11 10 9 8 7 6 6 6 5 7 8 8 10 10 10 10 9 9 8 8 9 11 11 11 10 9 10 12 13 12
15 15 16 14 14 14 15 16 14 13 12 11 11 10 9 10 10 11 12 12 10 10 9 8 6 7 6 7 10 11 11 11 12 12 11 11 9 10 11 11 12 12 9 10 10 11 11 13 14
16 13 14 14 15 18 15 19 15 14 13 12 11 11 11 10 11 11 12 12 11 10 9 7 6 7 7 9 9 9 9 10 11 12 13 13 11 11 11 13 13 11 10 10 11 12 12 12 14
14 13 13 14 16 17 17 17 16 15 14 12 10 10 10 11 12 12 12 12 11 10 9 8 7 7 8 9 8 8 8 9 11 13 14 14 14 14 14 15 15 13 12 12 12 14 14 12 14
12 13 14 16 16 19 17 17 18 16 14 13 11 10 11 12 12 13 13 13 12 11 9 8 7 7 9 9 9 8 9 13 13 14 15 15 15 16 16 16 15 15 15 14 14 14 14 14 15
13 14 18 20 20 19 18 18 16 14 13 12 11 11 12 12 12 13 14 13 13 11 10 9 8 8 9 9 9 9 11 11 12 13 14 16 16 17 17 17 17 17 16 15 15 15 15 15 15
14 14 18 23 22 20 18 19 16 13 12 12 12 12 13 12 13 13 14 13 13 12 10 9 9 9 10 10 10 10 11 11 12 13 14 15 15 16 17 18 17 17 16 16 16 16 16 16 16
15 16 14 16 24 21 18 17 14 14 13 12 12 13 13 12 13 13 14 13 13 12 11 9 9 9 10 10 11 12 12 12 13 14 15 15 16 17 18 18 17 17 17 16 16 17 16 16 16
14 13 17 18 22 24 19 18 17 14 13 12 13 12 12 12 13 14 14 14 13 12 11 9 9 10 11 11 12 12 12 12 13 15 16 16 17 17 18 18 17 17 17 17 17 17 17 17 17
15 16 16 16 18 21 22 16 15 13 13 13 12 12 12 13 13 13 14 14 13 12 11 10 10 12 12 12 12 13 13 13 14 15 16 17 17 18 18 18 18 18 18 18 17 18 18 18 18
16 16 15 18 20 19 19 16 14 14 14 13 13 13 13 13 13 14 14 14 14 13 13 12 11 12 12 12 13 13 14 14 15 16 17 17 18 18 18 18 18 18 18 18 18 19 18 19 19